Find Starlink 3980

NORAD ID: 52611 Int'l Des: 2022-052 Owner: SPXS Country: US Constellation: starlink operational
LEOCIRCULAR

当前视图

正在加载3D地球...

About Starlink 3980

Starlink 3980 (NORAD 52611) is a starlink constellation satellite (v1.5) launched May 14, 2022 by SPXS of US. It operates in LEO, CIRCULAR orbit with a mass of 297.00 kg.

即将过境

Passes for default location (London). Set your location on the main map for personalized predictions.

高度历史

Loading altitude history...

两行轨道根数

1 52611U 22052P 26235.06878528 .00001228 00000-0 46147-4 0 9997
2 52611 53.1594 249.6604 0001065 69.2842 290.8275 15.35373076236002
Epoch: Aug 23, 2026 • Age: 32 hours

当前状态

高度 462.9 km
远地点 / 近地点 N/A
速度 7.64 km/s
星下点 39.59°N, 88.98°W
发射日期 May 14, 2022
运行时间 4.2 years
类型 internet

技术详情

分类 Payload
质量 297.00 kg
干质量 275.00 kg
总质量 297.00 kg
长度 0.20 m
直径 2.80 m
跨度 9.00 m
形状 Box + pan
制造商 SPXS
平台类型 Starlink
阶段状态 In Orbit
所有者/国家 SPXS/US

Most Searched